FW4399 Weather Reports


Display with metric or nautical units.
time (UTC)temp
F
wind
direction
speed
MPH
gust
MPH
rain 1hr
in
rain 24hr
in
rain mn
in
humidity
%
barometer
mb
20260507130058 60 190 6.0 0.0 0.00 0.00 0.01 53 1011.5
20260507124608 60 106 3.0 0.0 0.00 0.00 0.01 56 1011.5
20260507123020 62 128 5.0 0.0 0.00 0.00 0.01 54 1011.7
20260507121539 60 79 5.0 0.0 0.00 0.00 0.01 56 1011.7
20260507120033 62 158 3.0 0.0 0.00 0.00 0.01 48 1012.0
20260507114522 63 140 5.0 0.0 0.00 0.00 0.01 55 1012.1
20260507113033 63 152 5.0 0.0 0.00 0.00 0.01 56 1012.1
20260507111545 60 199 3.0 0.0 0.00 0.00 0.01 57 1012.1
20260507110027 62 179 4.0 0.0 0.00 0.00 0.01 60 1012.1
20260507104634 62 156 3.0 0.0 0.00 0.00 0.01 58 1012.1
20260507103028 60 246 5.0 0.0 0.00 0.00 0.01 55 1012.3
20260507101607 60 178 4.0 0.0 0.00 0.00 0.01 64 1012.3
20260507100022 57 188 4.0 0.0 0.00 0.00 0.01 66 1012.3
20260507094622 57 195 4.0 0.0 0.00 0.00 0.01 68 1012.2
20260507093132 56 166 3.0 0.0 0.00 0.00 0.01 70 1012.2
20260507091622 57 143 4.0 0.0 0.00 0.00 0.01 70 1012.3
20260507090019 54 177 4.0 0.0 0.00 0.00 0.01 76 1012.3
20260507084541 53 165 3.0 0.0 0.00 0.00 0.01 78 1012.2
20260507083141 53 170 4.0 0.0 0.00 0.00 0.01 73 1012.5
20260507081516 53 153 5.0 0.0 0.00 0.00 0.01 77 1012.5
20260507080051 52 163 5.0 0.0 0.00 0.00 0.01 74 1012.5
20260507074524 53 133 3.0 0.0 0.00 0.00 0.01 81 1012.6
20260507073032 51 165 5.0 0.0 0.00 0.00 0.01 82 1012.6
20260507071539 50 158 5.0 0.0 0.00 0.00 0.01 87 1012.5
20260507070141 49 147 3.0 0.0 0.00 0.00 0.01 91 1012.2
20260507064603 48 98 2.0 0.0 0.00 0.00 0.01 95 1012.0
20260507063135 46 69 1.0 0.0 0.00 0.00 0.01 95 1011.6
20260507061540 43 33 0.0 0.0 0.00 0.00 0.01 95 1011.5
20260507060038 42 34 1.0 0.0 0.00 0.00 0.01 94 1011.5
20260507054646 41 4 1.0 0.0 0.00 0.00 0.01 94 1011.4
20260507053142 41 332 1.0 0.0 0.00 0.00 0.01 94 1011.3
20260507051628 40 331 0.0 0.0 0.00 0.00 0.01 94 1011.2
20260507050026 40 331 0.0 0.0 0.00 0.00 0.01 93 1011.1
20260507044603 40 331 1.0 0.0 0.00 0.00 0.01 93 1011.0
20260507043135 40 13 3.0 0.0 0.00 0.00 0.01 93 1011.0
20260507041526 40 15 2.0 0.0 0.00 0.00 0.01 93 1011.0
20260507040126 40 15 2.0 0.0 0.00 0.00 0.01 93 1011.0
20260507034525 40 15 2.0 0.0 0.00 0.00 0.01 92 1010.8
20260507033039 41 15 3.0 0.0 0.00 0.00 0.01 92 1010.7
20260507031640 41 121 2.0 0.0 0.00 0.00 0.01 92 1010.7
20260507030138 42 125 0.0 0.0 0.00 0.00 0.01 92 1010.6
20260507024649 42 125 2.0 0.0 0.00 0.00 0.01 92 1010.6
20260507023011 43 127 0.0 0.0 0.00 0.00 0.01 92 1010.6
20260507021501 43 127 1.0 0.0 0.00 0.00 0.01 92 1010.6
20260507020027 43 127 2.0 0.0 0.00 0.00 0.01 92 1010.5
20260507014541 43 129 0.0 0.0 0.00 0.00 0.01 92 1010.6
20260507013142 44 129 0.0 0.0 0.00 0.00 0.01 92 1010.6
20260507011639 44 129 0.0 0.0 0.00 0.00 0.01 92 1010.6
20260507010037 44 129 0.0 0.0 0.00 0.00 0.01 92 1010.7
20260507004623 45 129 1.0 0.0 0.00 0.00 0.01 92 1010.6
20260507003012 45 129 3.0 0.0 0.00 0.00 0.01 92 1010.6
20260507001547 45 139 2.0 0.0 0.00 0.00 0.01 92 1010.6
20260507000141 45 51 0.0 0.0 0.00 0.00 0.01 92 1010.9
20260506234537 45 51 0.0 0.0 0.00 0.00 0.00 92 1010.9
20260506233128 45 51 0.0 0.0 0.00 0.00 0.00 92 1011.0
20260506231527 45 51 1.0 0.0 0.00 0.00 0.00 91 1011.0
20260506230053 45 51 2.0 0.0 0.00 0.00 0.00 91 1011.0
20260506224551 45 53 2.0 0.0 0.00 0.00 0.06 91 1010.9
20260506223129 45 49 2.0 0.0 0.00 0.00 0.06 90 1011.0
20260506221646 45 43 3.0 0.0 0.00 0.00 0.04 90 1010.9
20260506220006 45 30 4.0 0.0 0.00 0.00 0.03 89 1010.9
20260506214648 45 27 4.0 0.0 0.00 0.00 0.02 88 1010.8
20260506213102 45 31 4.0 0.0 0.00 0.00 0.02 87 1010.8
20260506211620 45 12 3.0 0.0 0.00 0.00 0.02 87 1010.7
20260506210113 45 20 4.0 0.0 0.00 0.00 0.02 87 1010.5
20260506204549 44 24 5.0 0.0 0.00 0.00 0.02 86 1010.5
20260506203018 44 7 5.0 0.0 0.00 0.00 0.02 87 1010.4
20260506201600 44 13 4.0 0.0 0.00 0.00 0.02 87 1010.3
20260506200052 44 1 5.0 0.0 0.00 0.00 0.02 87 1010.5
20260506194554 44 351 6.0 0.0 0.00 0.00 0.02 87 1010.4
20260506193135 44 3 6.0 0.0 0.00 0.00 0.02 87 1010.3
20260506191613 45 32 7.0 0.0 0.00 0.00 0.02 87 1010.3
20260506190136 45 1 8.0 0.0 0.00 0.00 0.02 87 1010.2
20260506184608 45 342 9.0 0.0 0.00 0.00 0.02 88 1010.2
20260506183105 45 0 8.0 0.0 0.00 0.00 0.02 88 1010.1
20260506181638 45 13 10.0 0.0 0.00 0.00 0.02 87 1010.0
20260506180041 45 4 10.0 0.0 0.00 0.00 0.02 88 1009.9
20260506174610 46 351 10.0 0.0 0.00 0.00 0.02 89 1009.7
20260506173034 46 11 10.0 0.0 0.00 0.00 0.02 89 1009.6
20260506171623 46 16 9.0 0.0 0.00 0.00 0.02 89 1009.5
20260506170137 46 357 10.0 0.0 0.00 0.00 0.02 88 1009.5
20260506164640 46 356 10.0 0.0 0.00 0.00 0.02 88 1009.5
20260506163101 47 11 10.0 0.0 0.00 0.00 0.02 89 1009.5
20260506161600 47 359 9.0 0.0 0.00 0.00 0.02 89 1009.4
20260506160020 46 6 9.0 0.0 0.00 0.00 0.02 89 1009.5
20260506154535 47 344 9.0 0.0 0.00 0.00 0.02 90 1009.5
20260506153145 47 359 10.0 0.0 0.00 0.00 0.02 90 1009.5
20260506151644 47 25 9.0 0.0 0.00 0.00 0.02 89 1009.5
20260506150129 47 359 9.0 0.0 0.00 0.00 0.02 89 1009.5
20260506144531 48 345 8.0 0.0 0.00 0.00 0.01 87 1009.5
20260506143026 49 23 8.0 0.0 0.00 0.00 0.00 85 1009.5
20260506141553 50 20 10.0 0.0 0.00 0.00 0.00 81 1009.5
20260506140005 52 357 10.0 0.0 0.00 0.00 0.00 75 1009.5
20260506134531 53 18 11.0 0.0 0.00 0.00 0.00 74 1009.6
20260506133044 54 30 9.0 0.0 0.00 0.00 0.00 70 1009.5
20260506131643 54 8 11.0 0.0 0.00 0.00 0.00 69 1009.5